SCP
0 0 0 0 0 0 0 0 0 0 0 0 0 0 0 0 0 0 0 0 0 0 0 0 0 0 0 0 0 0 0 0 0 0 0 0 0 0 0 0 0 0 0 0 0 0 0 0 0 0 0 0 0 0
0 0 0 0 0 0 0 0 0 0 0 0 0 0 0 0 0 0 0 0 0 0 0 0 -0 0 0 0 0 0 0 0 0 0 0 0 0 0 0 0 0 0 0 0 0 0 0 0 0 0 0 0 0 0
0 0 0 0 0 0 0 0 0 0 0 0 0 0 0 0 0 0 0 0 0 0 0 0 0 0 0 0 0 0 0 0 0 0 0 0 0 0 0 0 0 0 0 0 0 0 0 0 0 0 0 0 0 0
0 0 0 0 0 0 0 0 0 0 0 0 0 0 0 0 0 0 0 0 0 0 0 0 0 0 0 0 0 0 0 0 0 0 0 0 0 0 0 0 0 0 0 0 0 0 0 0 0 0 0 0 0 0
-0 0 0 0 0 0 0 0 0 0 0 0 0 0 0 0 0 0 0 0 0 0 0 -0 0 0 0 0 0 0 0 0 0 0 0 0 0 0 0 0 0 0 0 0 0 0 0 0 0 0 0 0 0 0
-0 0 0 0 0 0 0 0 0 0 0 0 0 0 0 0 0 0 0 0 0 0 0 0 0 0 0 0 0 0 0 0 0 0 0 0 0 0 0 0 0 0 0 0 0 0 0 0 0 0 0 0 0 0
0 0 0 0 0 0 0 0 0 0 0 0 0 0 0 0 0 0 0 0 0 0 0 -0 0 0 0 0 0 0 0 0 0 0 0 0 0 0 0 0 0 0 0 0 0 0 0 0 0 0 0 0 0 0
0 0 0 0 0 0 0 0 0 0 0 0 0 0 0 0 0 0 0 0 0 0 0 0 -0 0 0 0 0 0 0 0 0 0 0 0 0 0 0 0 0 0 0 0 0 0 0 0 0 0 0 0 0 0
0 0 0 0 0 0 0 0 0 0 0 0 0 0 0 0 0 0 0 0 0 0 0 0 -0 0 0 0 0 0 0 0 0 0 0 0 0 0 0 0 0 0 0 0 0 0 0 0 0 0 0 0 0 0
0 0 0 0 0 0 0 0 0 0 0 0 0 0 0 0 0 0 0 0 0 0 0 0 0 0 0 0 0 0 0 0 0 0 0 0 0 0 0 0 0 0 0 0 0 0 0 0 0 0 0 0 0 0
0 0 0 0 0 0 0 0 0 0 0 0 0 0 0 0 0 0 0 0 0 0 0 0 0 0 0 0 0 0 0 0 0 0 0 0 0 0 0 0 0 0 0 0 0 0 0 0 0 0 0 0 0 0
0 0 0 0 0 0 0 0 0 0 0 0 0 0 0 0 0 0 0 0 0 0 0 0 0 0 0 0 0 0 0 0 0 0 0 0 0 0 0 0 0 0 0 0 0 0 0 0 0 0 0 0 0 0
0 0 0 0 0 0 0 0 0 0 0 0 0 0 0 0 0 0 0 0 0 0 0 0 0 0 0 0 0 0 0 0 0 0 0 0 0 0 0 0 0 0 0 0 0 0 0 0 0 0 0 0 0 0
0 0 0 0 0 0 0 0 0 0 0 0 0 0 0 0 0 0 0 0 0 0 0 0 0 0 0 0 0 0 0 0 0 0 0 0 0 0 0 0 0 0 0 0 0 0 0 0 0 0 0 0 0 0
0 0 0 0 0 0 0 0 0 0 0 0 0 0 0 0 0 0 0 0 0 0 0 0 0 0 0 0 0 0 0 0 0 0 0 0 -0 0 0 0 0 0 0 0 0 0 0 0 0 0 0 0 0 0
0 0 0 0 0 0 0 0 0 0 0 0 0 0 0 0 0 0 0 0 0 0 0 0 0 0 0 0 0 0 0 0 0 0 -0 -0 -0 0 0 0 0 0 0 0 0 0 0 0 0 0 0 0 0 0
0 0 0 0 0 0 0 0 0 0 0 0 0 0 0 0 0 0 0 0 0 0 0 0 0 0 0 0 0 0 0 0 -0 -0 -0 -0 0 0 0 0 0 0 0 0 0 0 0 0 0 0 0 0 0 0
0 0 0 0 0 0 0 0 0 0 0 0 0 0 0 0 0 0 0 0 0 0 0 0 0 0 0 0 0 0 0 -0 -0 -0 0 0 0 0 0 0 0 0 0 0 0 0 0 0 0 0 0 0 0 0
0 0 0 0 0 0 0 0 0 0 0 0 0 0 0 0 0 0 0 0 0 0 0 0 0 0 0 0 -0 -0 -0 -0 -0 0 0 0 0 0 0 0 0 0 0 0 0 0 0 0 0 0 0 0 0 0
0 0 0 0 0 0 0 0 0 0 0 0 0 0 0 0 0 0 0 0 0 0 0 0 0 0 0 0 -0 -0 -0 -0 -0 0 0 0 0 0 0 0 0 0 0 0 0 0 0 0 0 0 0 0 0 0
0 0 0 0 0 0 0 0 0 0 0 0 0 0 0 0 0 0 0 0 0 0 0 0 0 0 0 -0 -0 -0 -0 0 0 0 0 0 0 0 0 0 0 0 0 0 0 0 0 0 0 0 0 0 0 0
0 0 0 0 0 0 0 0 0 0 0 0 0 0 0 0 0 0 0 0 0 0 0 0 0 0 -0 -0 -0 0 0 0 0 0 0 0 0 0 0 0 0 0 0 0 0 0 0 0 0 0 0 0 0 0
0 0 0 0 0 0 0 0 0 0 0 0 0 0 0 0 0 0 0 0 0 0 0 0 0 -0 -0 -0 -0 0 0 0 0 0 0 0 0 0 0 0 0 0 0 0 0 0 0 0 0 0 0 0 0 0
0 0 0 0 0 0 0 0 0 0 0 0 0 0 0 0 0 0 0 0 0 0 0 -0 -0 -0 0 0 0 0 0 0 0 0 0 0 0 0 0 0 0 0 0 0 0 0 0 0 0 0 0 0 0 0
0 0 0 0 0 0 0 0 0 0 0 0 0 0 0 0 0 0 0 0 0 0 -0 0 0 0 0 0 0 0 0 0 0 0 0 0 0 0 0 0 0 0 0 0 0 0 0 0 0 0 0 0 0 0
0 0 0 0 0 0 0 0 0 0 0 0 0 0 0 0 0 0 0 0 0 0 0 0 0 0 0 0 0 0 0 0 0 0 0 0 0 0 0 0 0 0 0 0 0 0 0 0 0 0 0 0 0 0
0 0 0 0 0 0 0 0 0 0 0 0 0 0 0 0 0 0 0 0 0 0 0 0 0 0 0 0 0 0 0 0 0 0 0 0 0 0 0 0 0 0 0 0 0 0 0 0 0 0 0 0 0 0
0 0 0 0 0 0 0 0 0 0 0 0 0 0 0 0 0 0 0 0 0 0 0 0 0 0 0 0 0 0 0 0 0 0 0 0 0 0 0 0 0 0 0 0 0 0 0 0 0 0 0 0 0 0
0 0 0 0 0 0 0 0 0 0 0 0 0 0 0 0 0 0 0 0 0 0 0 0 0 0 0 0 0 0 0 0 0 0 0 0 0 0 0 0 0 0 0 0 0 0 0 0 0 0 0 0 0 0
0 0 0 0 0 0 0 0 0 0 0 0 0 0 0 0 0 0 0 0 0 0 0 0 0 0 0 0 0 0 0 0 0 0 0 0 0 0 0 0 0 0 0 0 0 0 0 0 0 0 0 0 0 0
0 0 0 0 0 0 0 0 0 0 0 0 0 0 0 0 0 0 0 0 0 0 0 0 0 0 0 0 0 0 0 0 0 0 0 0 0 0 0 0 0 0 0 0 0 0 0 0 0 0 0 0 0 0
0 0 0 0 0 0 0 0 0 0 0 0 0 0 0 0 0 0 0 0 0 0 0 0 0 0 0 0 0 0 0 0 0 0 0 0 0 0 0 0 0 0 0 0 0 0 0 0 0 0 0 0 0 0
0 0 0 0 0 0 0 0 0 0 0 0 0 0 0 0 0 0 0 0 0 0 0 0 0 0 0 0 0 0 0 0 0 0 0 0 0 0 0 0 0 0 0 0 0 0 0 0 0 0 0 0 0 0
Wind_Speed_500mb
86 89 93 97 94 98 100 104 102 102 101 100 100 101 98 93 88 90 80 57 73 28 30 21 38 28 22 48 12 20 13 4 3 10 11 8 8 12 6 9 13 15 13 8 7 10 13 19 7 6 5 4 7 8
87 89 88 93 95 99 100 103 101 98 98 96 96 100 96 91 86 86 64 60 54 44 11 19 21 23 31 38 12 59 11 17 22 7 4 6 4 4 6 10 7 7 11 9 12 5 4 6 7 6 13 16 19 26
94 94 88 94 100 101 97 99 99 95 95 97 97 96 93 90 86 89 68 61 51 34 23 36 15 19 23 37 34 17 12 24 22 15 10 4 7 6 9 8 4 6 21 3 5 6 3 10 19 15 19 19 26 29
95 97 94 96 103 99 96 95 93 93 93 97 94 91 90 88 88 87 73 61 57 20 7 6 21 25 19 32 43 46 33 37 40 21 8 5 5 10 5 4 4 10 11 11 5 3 7 3 21 23 29 36 41 43
90 103 103 102 100 96 92 90 91 93 95 93 89 88 90 87 80 79 74 65 60 45 11 5 8 2 9 17 18 23 42 52 31 10 5 4 8 8 4 3 3 8 9 8 8 3 7 11 25 29 30 34 38 43
107 109 106 97 93 90 92 90 88 94 88 93 91 89 96 88 82 81 34 56 67 49 13 4 2 13 23 23 28 36 42 32 18 14 7 6 9 12 6 7 8 31 36 18 10 21 20 17 23 31 39 41 41 41
81 89 91 88 86 88 89 86 88 95 89 89 90 91 84 82 90 74 24 34 77 63 15 6 1 9 28 23 19 26 25 16 14 11 6 6 8 14 3 4 18 26 27 25 22 17 22 38 30 31 33 37 37 37
71 77 81 83 84 88 81 85 88 90 93 88 82 80 87 85 78 78 36 35 82 54 19 8 4 9 19 8 8 7 9 10 7 6 13 11 20 10 5 14 32 30 26 25 28 33 29 17 22 33 37 43 43 40
74 78 79 84 87 84 88 93 88 85 85 84 86 82 84 79 44 61 63 58 78 24 21 13 15 10 24 7 12 6 7 4 13 4 4 21 7 6 10 31 39 28 21 31 22 19 20 27 29 32 34 36 41 43
83 81 88 91 87 83 80 81 88 90 89 87 81 33 12 36 54 68 43 31 19 13 16 5 16 8 27 14 7 11 9 5 6 9 19 5 5 24 44 44 40 33 26 14 15 26 21 22 23 28 32 25 25 31
79 78 79 81 83 84 86 85 88 89 99 69 16 11 69 86 61 16 15 14 11 9 22 16 16 17 22 5 7 15 7 6 6 7 8 6 6 10 44 46 38 32 26 25 22 20 19 18 19 16 15 17 24 16
77 76 77 77 77 77 76 76 98 84 45 37 41 57 39 17 10 10 9 9 8 12 17 14 33 24 23 16 7 12 6 3 8 16 6 7 8 46 54 45 37 26 19 19 13 13 15 13 7 8 9 18 18 23
72 69 65 66 70 68 65 97 78 68 59 84 28 13 14 9 11 17 21 8 10 16 23 48 22 20 14 13 8 6 7 7 30 4 7 5 35 59 54 45 35 23 17 17 17 7 6 8 12 12 20 23 26 31
58 59 60 58 57 65 100 87 63 83 35 9 9 12 10 9 9 9 8 10 16 52 74 61 24 7 13 5 6 9 6 8 7 8 11 10 46 55 47 37 30 26 21 20 18 9 8 14 17 18 23 26 29 36
52 53 53 55 75 97 84 71 73 35 13 9 5 5 8 5 10 12 42 42 65 90 73 34 17 15 4 7 6 8 8 8 10 11 10 46 59 54 46 34 27 25 26 22 15 12 13 13 17 20 24 24 29 37
51 49 59 84 93 85 84 78 41 23 10 5 5 1 5 1 6 31 59 65 85 75 52 16 8 9 6 9 8 11 16 11 6 7 53 65 59 52 44 40 33 29 30 24 20 14 6 13 19 18 16 22 28 32
64 63 91 93 89 83 65 47 17 14 7 5 2 2 10 27 23 43 71 72 65 35 6 7 9 7 9 6 9 6 7 9 43 49 58 69 61 50 44 35 32 34 29 23 15 12 11 12 14 12 17 22 29 25
79 79 83 86 74 59 45 20 12 10 7 13 6 27 37 40 50 53 44 47 28 11 6 6 12 6 9 10 5 8 39 51 54 64 60 53 47 39 32 38 40 33 25 18 17 10 7 10 8 13 20 27 28 27
96 89 80 65 44 24 11 10 8 6 11 13 29 42 35 33 49 51 48 37 31 23 23 7 8 4 4 7 33 46 54 61 61 63 57 49 43 41 38 41 39 30 23 16 10 4 2 7 8 16 24 28 28 29
68 58 47 36 31 13 11 9 10 12 5 11 28 37 26 36 45 41 38 30 20 10 10 8 4 8 23 50 60 63 65 71 73 65 55 47 42 40 38 39 32 24 18 12 8 1 2 6 13 21 25 25 27 24
46 37 29 30 28 14 13 12 9 13 16 14 33 31 20 36 36 27 17 13 19 11 6 16 39 54 55 61 64 69 67 64 64 61 67 56 44 39 40 36 27 24 18 15 15 8 6 9 19 22 22 19 21 22
37 30 26 18 8 8 11 13 17 26 12 21 21 14 10 4 6 11 11 22 11 14 19 50 59 62 61 56 53 54 52 44 39 42 42 54 56 47 37 29 25 23 20 14 13 18 17 19 20 21 18 18 16 24
26 17 11 7 10 10 3 11 8 7 8 9 17 7 4 5 6 8 10 11 12 42 51 57 54 54 58 54 53 50 47 49 55 48 47 41 34 31 28 23 23 20 18 17 17 17 17 19 20 16 14 16 17 27
15 7 6 7 11 7 8 6 8 8 11 6 5 7 5 4 3 6 7 8 31 46 49 50 54 59 53 51 52 48 45 43 48 45 36 38 39 34 26 24 23 20 21 21 22 20 19 18 15 14 15 13 19 29
7 13 9 10 9 9 8 6 6 7 5 7 7 5 1 5 5 4 5 13 42 47 51 51 51 52 56 51 47 43 34 35 46 45 36 26 27 28 22 19 18 19 21 25 24 18 15 15 16 15 17 14 21 26
13 15 8 4 2 9 6 7 7 7 7 7 5 9 6 5 7 3 4 37 44 52 56 56 53 48 47 52 55 48 38 27 29 32 30 23 21 23 30 30 27 25 19 17 19 18 19 18 17 19 14 13 21 25
8 7 10 10 10 14 11 16 18 9 7 6 5 5 6 7 4 2 16 30 40 50 49 49 48 51 52 48 42 40 34 26 19 21 28 29 25 23 24 27 26 21 19 17 17 17 20 21 19 17 15 14 23 25
11 8 6 12 15 16 8 6 5 5 3 11 10 6 8 6 4 5 11 16 34 47 49 41 40 47 50 45 37 35 34 31 29 28 27 28 28 26 25 26 26 26 24 23 22 19 18 18 17 17 17 15 21 20
9 8 13 13 13 17 11 9 5 11 19 5 6 5 6 10 12 17 20 31 42 51 48 48 50 47 42 36 27 21 18 22 31 34 32 30 27 28 28 26 25 23 22 22 20 19 17 15 14 14 15 15 14 12
6 9 8 10 8 8 11 15 15 30 31 27 20 33 38 30 26 27 32 34 47 46 44 42 42 35 33 31 28 25 23 24 25 26 28 25 17 15 17 19 19 19 19 18 17 16 16 15 15 14 14 14 15 15
6 7 11 12 7 8 26 32 38 43 45 45 40 39 29 23 30 24 26 26 31 35 35 34 32 27 24 21 17 16 19 26 31 32 27 20 15 12 12 12 12 13 14 14 14 13 13 13 13 13 12 14 21 23
9 7 7 8 7 13 14 9 9 12 14 16 14 18 20 13 10 8 17 18 17 20 22 24 23 22 17 15 13 9 4 11 24 26 20 18 15 13 13 13 13 12 12 11 12 13 14 13 15 17 19 21 25 24
23 36 32 19 10 7 6 9 8 8 13 10 15 15 15 11 9 5 19 19 19 17 15 14 15 15 19 20 17 12 10 10 14 17 22 20 15 12 12 10 11 12 12 12 13 14 15 15 16 18 20 22 23 24
Wind_Direction_500mb
218 217 215 215 212 209 207 207 205 204 205 204 204 205 205 205 202 200 205 214 214 229 280 296 247 232 231 228 182 150 115 170 66 172 184 176 189 210 193 192 175 176 179 197 199 224 260 112 46 144 187 196 253 269
216 211 210 209 207 204 202 202 203 202 203 202 202 202 203 203 199 198 197 206 207 207 222 304 254 239 235 212 234 169 196 151 168 164 159 128 165 166 159 245 77 189 198 177 202 213 246 171 193 227 233 239 249 262
214 210 206 204 201 200 197 199 201 201 202 201 202 200 200 198 196 197 193 196 195 210 241 265 265 249 240 231 194 195 189 173 170 161 131 110 200 161 184 210 155 38 192 170 103 174 80 322 322 347 9 331 341 342
209 206 202 198 196 197 197 197 197 198 198 197 196 196 197 193 192 195 191 193 192 157 149 253 240 238 247 241 211 210 202 176 170 147 113 146 167 183 190 79 179 182 156 207 226 312 353 68 29 16 353 341 335 327
198 196 194 193 192 193 193 192 192 194 194 193 194 192 191 190 188 189 197 200 205 189 137 186 158 90 236 229 242 215 198 178 154 119 110 172 137 102 28 66 280 206 198 155 209 76 174 36 8 1 345 344 359 360
173 170 177 182 186 188 187 186 188 187 191 190 186 185 181 181 182 179 183 203 194 191 161 189 183 99 110 124 141 161 169 154 123 112 118 123 170 115 141 198 184 89 78 135 102 72 54 22 11 29 31 19 25 28
153 162 169 173 178 179 183 184 184 182 189 183 187 175 172 177 182 177 179 196 196 194 151 166 143 117 117 122 112 96 105 89 95 98 114 126 101 137 244 203 115 90 84 76 66 54 55 48 46 25 12 3 354 359
154 157 166 166 173 175 180 169 171 173 166 162 165 167 175 181 188 190 200 183 184 173 148 140 122 133 139 109 90 64 83 76 79 151 180 135 151 208 227 146 127 115 103 80 85 80 75 49 11 6 357 353 2 16
159 162 156 157 159 163 160 153 155 161 163 166 169 172 169 177 181 185 207 175 170 179 135 171 168 154 151 120 114 98 100 85 156 161 215 156 170 210 216 133 110 115 107 105 92 67 34 31 33 28 20 18 17 14
141 148 146 143 147 152 158 161 161 163 164 168 163 151 135 157 163 158 151 164 195 155 142 146 126 120 146 155 114 129 151 156 177 222 148 133 167 106 109 111 118 119 113 115 85 60 54 44 32 29 26 18 9 4
142 146 149 151 152 153 156 162 166 167 160 144 125 95 135 131 139 150 152 181 157 142 165 143 155 129 151 127 128 184 174 194 164 224 131 202 164 165 121 119 117 113 100 91 103 93 72 54 33 24 13 3 0 7
141 143 146 149 152 154 158 159 153 150 152 151 144 129 142 145 157 166 163 157 178 164 160 135 146 126 129 135 144 186 173 125 181 150 126 190 178 149 129 129 121 111 109 112 88 73 40 48 23 45 16 4 4 354
143 145 148 151 157 159 159 156 152 151 130 129 123 122 161 165 190 186 176 172 148 159 143 146 136 133 142 160 142 123 147 192 129 100 202 185 130 128 134 130 121 117 122 105 106 107 71 87 42 66 26 14 1 353
146 146 148 151 151 151 159 160 148 137 136 106 130 141 197 183 229 203 173 140 124 136 140 141 127 119 136 121 142 131 139 139 164 184 187 140 132 137 140 138 140 133 129 122 154 147 90 68 57 41 28 9 351 344
144 145 150 148 156 158 154 151 145 129 79 82 131 178 206 287 275 147 119 121 134 136 136 115 80 88 109 121 148 128 150 196 201 193 144 147 134 139 136 146 155 141 136 152 148 123 97 41 39 35 23 352 338 338
147 142 148 154 150 155 151 150 109 82 75 84 126 247 277 155 85 123 129 131 142 137 135 111 118 127 160 140 139 191 165 188 157 110 133 134 150 154 148 150 148 145 156 155 149 141 101 40 24 32 0 334 332 338
147 128 150 159 148 145 139 108 63 53 51 358 342 315 148 110 120 129 135 138 146 136 119 119 108 150 131 131 158 143 162 130 125 125 135 151 153 154 158 155 156 156 158 163 150 105 61 26 34 1 339 333 328 339
143 146 150 146 124 101 87 59 74 62 26 15 63 86 101 112 125 132 146 143 130 95 85 135 127 105 151 133 113 119 114 120 124 137 142 145 152 154 157 158 153 161 167 143 116 94 37 12 23 331 318 315 324 323
141 133 127 122 113 91 86 50 47 87 59 61 83 95 93 86 98 101 102 110 116 106 115 84 78 104 141 109 128 130 130 134 134 136 140 147 150 162 161 159 160 164 151 138 128 115 21 56 315 302 308 316 328 332
118 124 130 124 109 82 85 62 62 88 65 98 88 80 73 74 90 89 90 92 94 74 52 42 37 68 119 130 139 141 142 139 137 134 144 156 165 169 166 156 156 151 141 128 119 27 72 159 267 289 305 319 330 349
125 124 113 94 79 83 100 142 117 120 101 107 103 85 74 73 65 63 59 53 59 40 64 96 97 116 135 143 146 146 148 153 156 160 163 159 163 153 153 165 167 152 157 170 170 215 264 245 271 293 307 323 340 347
128 114 102 96 90 87 78 88 116 123 100 139 101 77 72 41 41 32 54 52 54 53 120 124 124 132 128 128 140 146 147 150 151 152 153 153 160 166 172 172 162 165 179 203 200 221 232 250 281 300 315 334 347 333
142 155 140 126 102 88 26 84 90 85 114 122 119 98 73 70 63 57 75 72 82 130 137 132 130 133 135 141 145 150 161 159 160 158 154 154 157 161 165 164 171 186 192 217 232 238 244 265 289 311 320 337 331 327
157 107 80 84 82 112 109 47 76 76 101 98 83 91 73 116 106 66 83 80 138 142 140 143 147 142 144 148 148 153 162 164 155 154 156 156 157 164 182 190 200 204 203 220 240 245 253 276 295 304 317 326 320 330
106 10 60 43 87 87 76 42 51 69 96 70 71 77 133 130 87 61 107 134 152 152 156 158 162 162 153 154 155 155 165 162 154 151 163 175 169 172 181 197 212 224 223 227 236 245 258 280 296 298 310 312 318 326
67 8 54 85 175 103 132 112 146 128 85 71 87 105 136 80 72 97 104 166 172 170 175 172 167 161 167 169 160 160 166 163 157 156 160 178 191 195 195 201 209 221 246 245 238 249 259 270 286 295 301 306 309 314
66 12 20 40 75 82 81 61 68 80 90 118 140 99 83 96 117 125 117 159 178 186 186 181 175 173 167 166 163 161 162 169 171 156 165 181 197 213 219 221 225 242 250 252 258 261 257 264 276 282 288 287 295 303
44 51 74 12 64 53 102 85 87 103 81 117 111 114 123 120 98 90 135 155 174 169 166 171 175 175 171 171 168 167 169 176 180 187 190 196 206 215 219 226 235 244 251 257 265 267 262 265 272 279 289 296 299 308
58 70 63 16 48 44 31 25 60 40 357 120 112 88 83 72 105 128 144 152 162 168 166 163 158 168 166 166 170 177 187 196 196 195 202 207 210 217 221 224 234 243 249 254 259 261 263 270 279 284 291 296 302 306
15 29 90 48 55 64 26 43 67 64 70 91 96 103 101 106 113 134 151 158 164 164 163 164 160 174 175 174 173 183 200 210 211 217 219 220 222 222 222 219 230 239 246 249 252 255 258 260 271 275 277 295 306 315
46 75 73 56 66 41 94 88 81 80 76 82 112 118 124 118 111 119 133 140 158 165 167 169 172 181 184 182 187 195 204 208 205 208 216 219 224 224 228 238 241 240 246 252 260 261 260 264 267 274 287 293 296 300
27 73 127 120 119 117 102 89 84 84 78 77 93 103 114 104 80 92 115 139 159 172 176 179 177 179 183 181 181 198 210 213 214 216 214 216 223 233 238 242 247 246 246 253 256 262 272 276 273 271 271 277 286 296
85 93 108 117 127 114 85 99 81 76 60 58 37 50 52 65 88 123 160 157 162 172 183 190 196 205 203 206 211 215 227 204 195 203 208 212 217 227 236 240 245 254 261 265 268 273 279 282 282 281 281 286 295 301
Wind_Speed_850mb
86 89 93 97 94 98 100 104 102 102 101 100 100 101 98 93 88 90 80 57 73 28 30 21 38 28 22 48 12 20 13 4 3 10 11 8 8 12 6 9 13 15 13 8 7 10 13 19 7 6 5 4 7 8
87 89 88 93 95 99 100 103 101 98 98 96 96 100 96 91 86 86 64 60 54 44 11 19 21 23 31 38 12 59 11 17 22 7 4 6 4 4 6 10 7 7 11 9 12 5 4 6 7 6 13 16 19 26
94 94 88 94 100 101 97 99 99 95 95 97 97 96 93 90 86 89 68 61 51 34 23 36 15 19 23 37 34 17 12 24 22 15 10 4 7 6 9 8 4 6 21 3 5 6 3 10 19 15 19 19 26 29
95 97 94 96 103 99 96 95 93 93 93 97 94 91 90 88 88 87 73 61 57 20 7 6 21 25 19 32 43 46 33 37 40 21 8 5 5 10 5 4 4 10 11 11 5 3 7 3 21 23 29 36 41 43
90 103 103 102 100 96 92 90 91 93 95 93 89 88 90 87 80 79 74 65 60 45 11 5 8 2 9 17 18 23 42 52 31 10 5 4 8 8 4 3 3 8 9 8 8 3 7 11 25 29 30 34 38 43
107 109 106 97 93 90 92 90 88 94 88 93 91 89 96 88 82 81 34 56 67 49 13 4 2 13 23 23 28 36 42 32 18 14 7 6 9 12 6 7 8 31 36 18 10 21 20 17 23 31 39 41 41 41
81 89 91 88 86 88 89 86 88 95 89 89 90 91 84 82 90 74 24 34 77 63 15 6 1 9 28 23 19 26 25 16 14 11 6 6 8 14 3 4 18 26 27 25 22 17 22 38 30 31 33 37 37 37
71 77 81 83 84 88 81 85 88 90 93 88 82 80 87 85 78 78 36 35 82 54 19 8 4 9 19 8 8 7 9 10 7 6 13 11 20 10 5 14 32 30 26 25 28 33 29 17 22 33 37 43 43 40
74 78 79 84 87 84 88 93 88 85 85 84 86 82 84 79 44 61 63 58 78 24 21 13 15 10 24 7 12 6 7 4 13 4 4 21 7 6 10 31 39 28 21 31 22 19 20 27 29 32 34 36 41 43
83 81 88 91 87 83 80 81 88 90 89 87 81 33 12 36 54 68 43 31 19 13 16 5 16 8 27 14 7 11 9 5 6 9 19 5 5 24 44 44 40 33 26 14 15 26 21 22 23 28 32 25 25 31
79 78 79 81 83 84 86 85 88 89 99 69 16 11 69 86 61 16 15 14 11 9 22 16 16 17 22 5 7 15 7 6 6 7 8 6 6 10 44 46 38 32 26 25 22 20 19 18 19 16 15 17 24 16
77 76 77 77 77 77 76 76 98 84 45 37 41 57 39 17 10 10 9 9 8 12 17 14 33 24 23 16 7 12 6 3 8 16 6 7 8 46 54 45 37 26 19 19 13 13 15 13 7 8 9 18 18 23
72 69 65 66 70 68 65 97 78 68 59 84 28 13 14 9 11 17 21 8 10 16 23 48 22 20 14 13 8 6 7 7 30 4 7 5 35 59 54 45 35 23 17 17 17 7 6 8 12 12 20 23 26 31
58 59 60 58 57 65 100 87 63 83 35 9 9 12 10 9 9 9 8 10 16 52 74 61 24 7 13 5 6 9 6 8 7 8 11 10 46 55 47 37 30 26 21 20 18 9 8 14 17 18 23 26 29 36
52 53 53 55 75 97 84 71 73 35 13 9 5 5 8 5 10 12 42 42 65 90 73 34 17 15 4 7 6 8 8 8 10 11 10 46 59 54 46 34 27 25 26 22 15 12 13 13 17 20 24 24 29 37
51 49 59 84 93 85 84 78 41 23 10 5 5 1 5 1 6 31 59 65 85 75 52 16 8 9 6 9 8 11 16 11 6 7 53 65 59 52 44 40 33 29 30 24 20 14 6 13 19 18 16 22 28 32
64 63 91 93 89 83 65 47 17 14 7 5 2 2 10 27 23 43 71 72 65 35 6 7 9 7 9 6 9 6 7 9 43 49 58 69 61 50 44 35 32 34 29 23 15 12 11 12 14 12 17 22 29 25
79 79 83 86 74 59 45 20 12 10 7 13 6 27 37 40 50 53 44 47 28 11 6 6 12 6 9 10 5 8 39 51 54 64 60 53 47 39 32 38 40 33 25 18 17 10 7 10 8 13 20 27 28 27
96 89 80 65 44 24 11 10 8 6 11 13 29 42 35 33 49 51 48 37 31 23 23 7 8 4 4 7 33 46 54 61 61 63 57 49 43 41 38 41 39 30 23 16 10 4 2 7 8 16 24 28 28 29
68 58 47 36 31 13 11 9 10 12 5 11 28 37 26 36 45 41 38 30 20 10 10 8 4 8 23 50 60 63 65 71 73 65 55 47 42 40 38 39 32 24 18 12 8 1 2 6 13 21 25 25 27 24
46 37 29 30 28 14 13 12 9 13 16 14 33 31 20 36 36 27 17 13 19 11 6 16 39 54 55 61 64 69 67 64 64 61 67 56 44 39 40 36 27 24 18 15 15 8 6 9 19 22 22 19 21 22
37 30 26 18 8 8 11 13 17 26 12 21 21 14 10 4 6 11 11 22 11 14 19 50 59 62 61 56 53 54 52 44 39 42 42 54 56 47 37 29 25 23 20 14 13 18 17 19 20 21 18 18 16 24
26 17 11 7 10 10 3 11 8 7 8 9 17 7 4 5 6 8 10 11 12 42 51 57 54 54 58 54 53 50 47 49 55 48 47 41 34 31 28 23 23 20 18 17 17 17 17 19 20 16 14 16 17 27
15 7 6 7 11 7 8 6 8 8 11 6 5 7 5 4 3 6 7 8 31 46 49 50 54 59 53 51 52 48 45 43 48 45 36 38 39 34 26 24 23 20 21 21 22 20 19 18 15 14 15 13 19 29
7 13 9 10 9 9 8 6 6 7 5 7 7 5 1 5 5 4 5 13 42 47 51 51 51 52 56 51 47 43 34 35 46 45 36 26 27 28 22 19 18 19 21 25 24 18 15 15 16 15 17 14 21 26
13 15 8 4 2 9 6 7 7 7 7 7 5 9 6 5 7 3 4 37 44 52 56 56 53 48 47 52 55 48 38 27 29 32 30 23 21 23 30 30 27 25 19 17 19 18 19 18 17 19 14 13 21 25
8 7 10 10 10 14 11 16 18 9 7 6 5 5 6 7 4 2 16 30 40 50 49 49 48 51 52 48 42 40 34 26 19 21 28 29 25 23 24 27 26 21 19 17 17 17 20 21 19 17 15 14 23 25
11 8 6 12 15 16 8 6 5 5 3 11 10 6 8 6 4 5 11 16 34 47 49 41 40 47 50 45 37 35 34 31 29 28 27 28 28 26 25 26 26 26 24 23 22 19 18 18 17 17 17 15 21 20
9 8 13 13 13 17 11 9 5 11 19 5 6 5 6 10 12 17 20 31 42 51 48 48 50 47 42 36 27 21 18 22 31 34 32 30 27 28 28 26 25 23 22 22 20 19 17 15 14 14 15 15 14 12
6 9 8 10 8 8 11 15 15 30 31 27 20 33 38 30 26 27 32 34 47 46 44 42 42 35 33 31 28 25 23 24 25 26 28 25 17 15 17 19 19 19 19 18 17 16 16 15 15 14 14 14 15 15
6 7 11 12 7 8 26 32 38 43 45 45 40 39 29 23 30 24 26 26 31 35 35 34 32 27 24 21 17 16 19 26 31 32 27 20 15 12 12 12 12 13 14 14 14 13 13 13 13 13 12 14 21 23
9 7 7 8 7 13 14 9 9 12 14 16 14 18 20 13 10 8 17 18 17 20 22 24 23 22 17 15 13 9 4 11 24 26 20 18 15 13 13 13 13 12 12 11 12 13 14 13 15 17 19 21 25 24
23 36 32 19 10 7 6 9 8 8 13 10 15 15 15 11 9 5 19 19 19 17 15 14 15 15 19 20 17 12 10 10 14 17 22 20 15 12 12 10 11 12 12 12 13 14 15 15 16 18 20 22 23 24
Wind_Direction_850mb
218 217 215 215 212 209 207 207 205 204 205 204 204 205 205 205 202 200 205 214 214 229 280 296 247 232 231 228 182 150 115 170 66 172 184 176 189 210 193 192 175 176 179 197 199 224 260 112 46 144 187 196 253 269
216 211 210 209 207 204 202 202 203 202 203 202 202 202 203 203 199 198 197 206 207 207 222 304 254 239 235 212 234 169 196 151 168 164 159 128 165 166 159 245 77 189 198 177 202 213 246 171 193 227 233 239 249 262
214 210 206 204 201 200 197 199 201 201 202 201 202 200 200 198 196 197 193 196 195 210 241 265 265 249 240 231 194 195 189 173 170 161 131 110 200 161 184 210 155 38 192 170 103 174 80 322 322 347 9 331 341 342
209 206 202 198 196 197 197 197 197 198 198 197 196 196 197 193 192 195 191 193 192 157 149 253 240 238 247 241 211 210 202 176 170 147 113 146 167 183 190 79 179 182 156 207 226 312 353 68 29 16 353 341 335 327
198 196 194 193 192 193 193 192 192 194 194 193 194 192 191 190 188 189 197 200 205 189 137 186 158 90 236 229 242 215 198 178 154 119 110 172 137 102 28 66 280 206 198 155 209 76 174 36 8 1 345 344 359 360
173 170 177 182 186 188 187 186 188 187 191 190 186 185 181 181 182 179 183 203 194 191 161 189 183 99 110 124 141 161 169 154 123 112 118 123 170 115 141 198 184 89 78 135 102 72 54 22 11 29 31 19 25 28
153 162 169 173 178 179 183 184 184 182 189 183 187 175 172 177 182 177 179 196 196 194 151 166 143 117 117 122 112 96 105 89 95 98 114 126 101 137 244 203 115 90 84 76 66 54 55 48 46 25 12 3 354 359
154 157 166 166 173 175 180 169 171 173 166 162 165 167 175 181 188 190 200 183 184 173 148 140 122 133 139 109 90 64 83 76 79 151 180 135 151 208 227 146 127 115 103 80 85 80 75 49 11 6 357 353 2 16
159 162 156 157 159 163 160 153 155 161 163 166 169 172 169 177 181 185 207 175 170 179 135 171 168 154 151 120 114 98 100 85 156 161 215 156 170 210 216 133 110 115 107 105 92 67 34 31 33 28 20 18 17 14
141 148 146 143 147 152 158 161 161 163 164 168 163 151 135 157 163 158 151 164 195 155 142 146 126 120 146 155 114 129 151 156 177 222 148 133 167 106 109 111 118 119 113 115 85 60 54 44 32 29 26 18 9 4
142 146 149 151 152 153 156 162 166 167 160 144 125 95 135 131 139 150 152 181 157 142 165 143 155 129 151 127 128 184 174 194 164 224 131 202 164 165 121 119 117 113 100 91 103 93 72 54 33 24 13 3 0 7
141 143 146 149 152 154 158 159 153 150 152 151 144 129 142 145 157 166 163 157 178 164 160 135 146 126 129 135 144 186 173 125 181 150 126 190 178 149 129 129 121 111 109 112 88 73 40 48 23 45 16 4 4 354
143 145 148 151 157 159 159 156 152 151 130 129 123 122 161 165 190 186 176 172 148 159 143 146 136 133 142 160 142 123 147 192 129 100 202 185 130 128 134 130 121 117 122 105 106 107 71 87 42 66 26 14 1 353
146 146 148 151 151 151 159 160 148 137 136 106 130 141 197 183 229 203 173 140 124 136 140 141 127 119 136 121 142 131 139 139 164 184 187 140 132 137 140 138 140 133 129 122 154 147 90 68 57 41 28 9 351 344
144 145 150 148 156 158 154 151 145 129 79 82 131 178 206 287 275 147 119 121 134 136 136 115 80 88 109 121 148 128 150 196 201 193 144 147 134 139 136 146 155 141 136 152 148 123 97 41 39 35 23 352 338 338
147 142 148 154 150 155 151 150 109 82 75 84 126 247 277 155 85 123 129 131 142 137 135 111 118 127 160 140 139 191 165 188 157 110 133 134 150 154 148 150 148 145 156 155 149 141 101 40 24 32 0 334 332 338
147 128 150 159 148 145 139 108 63 53 51 358 342 315 148 110 120 129 135 138 146 136 119 119 108 150 131 131 158 143 162 130 125 125 135 151 153 154 158 155 156 156 158 163 150 105 61 26 34 1 339 333 328 339
143 146 150 146 124 101 87 59 74 62 26 15 63 86 101 112 125 132 146 143 130 95 85 135 127 105 151 133 113 119 114 120 124 137 142 145 152 154 157 158 153 161 167 143 116 94 37 12 23 331 318 315 324 323
141 133 127 122 113 91 86 50 47 87 59 61 83 95 93 86 98 101 102 110 116 106 115 84 78 104 141 109 128 130 130 134 134 136 140 147 150 162 161 159 160 164 151 138 128 115 21 56 315 302 308 316 328 332
118 124 130 124 109 82 85 62 62 88 65 98 88 80 73 74 90 89 90 92 94 74 52 42 37 68 119 130 139 141 142 139 137 134 144 156 165 169 166 156 156 151 141 128 119 27 72 159 267 289 305 319 330 349
125 124 113 94 79 83 100 142 117 120 101 107 103 85 74 73 65 63 59 53 59 40 64 96 97 116 135 143 146 146 148 153 156 160 163 159 163 153 153 165 167 152 157 170 170 215 264 245 271 293 307 323 340 347
128 114 102 96 90 87 78 88 116 123 100 139 101 77 72 41 41 32 54 52 54 53 120 124 124 132 128 128 140 146 147 150 151 152 153 153 160 166 172 172 162 165 179 203 200 221 232 250 281 300 315 334 347 333
142 155 140 126 102 88 26 84 90 85 114 122 119 98 73 70 63 57 75 72 82 130 137 132 130 133 135 141 145 150 161 159 160 158 154 154 157 161 165 164 171 186 192 217 232 238 244 265 289 311 320 337 331 327
157 107 80 84 82 112 109 47 76 76 101 98 83 91 73 116 106 66 83 80 138 142 140 143 147 142 144 148 148 153 162 164 155 154 156 156 157 164 182 190 200 204 203 220 240 245 253 276 295 304 317 326 320 330
106 10 60 43 87 87 76 42 51 69 96 70 71 77 133 130 87 61 107 134 152 152 156 158 162 162 153 154 155 155 165 162 154 151 163 175 169 172 181 197 212 224 223 227 236 245 258 280 296 298 310 312 318 326
67 8 54 85 175 103 132 112 146 128 85 71 87 105 136 80 72 97 104 166 172 170 175 172 167 161 167 169 160 160 166 163 157 156 160 178 191 195 195 201 209 221 246 245 238 249 259 270 286 295 301 306 309 314
66 12 20 40 75 82 81 61 68 80 90 118 140 99 83 96 117 125 117 159 178 186 186 181 175 173 167 166 163 161 162 169 171 156 165 181 197 213 219 221 225 242 250 252 258 261 257 264 276 282 288 287 295 303
44 51 74 12 64 53 102 85 87 103 81 117 111 114 123 120 98 90 135 155 174 169 166 171 175 175 171 171 168 167 169 176 180 187 190 196 206 215 219 226 235 244 251 257 265 267 262 265 272 279 289 296 299 308
58 70 63 16 48 44 31 25 60 40 357 120 112 88 83 72 105 128 144 152 162 168 166 163 158 168 166 166 170 177 187 196 196 195 202 207 210 217 221 224 234 243 249 254 259 261 263 270 279 284 291 296 302 306
15 29 90 48 55 64 26 43 67 64 70 91 96 103 101 106 113 134 151 158 164 164 163 164 160 174 175 174 173 183 200 210 211 217 219 220 222 222 222 219 230 239 246 249 252 255 258 260 271 275 277 295 306 315
46 75 73 56 66 41 94 88 81 80 76 82 112 118 124 118 111 119 133 140 158 165 167 169 172 181 184 182 187 195 204 208 205 208 216 219 224 224 228 238 241 240 246 252 260 261 260 264 267 274 287 293 296 300
27 73 127 120 119 117 102 89 84 84 78 77 93 103 114 104 80 92 115 139 159 172 176 179 177 179 183 181 181 198 210 213 214 216 214 216 223 233 238 242 247 246 246 253 256 262 272 276 273 271 271 277 286 296
85 93 108 117 127 114 85 99 81 76 60 58 37 50 52 65 88 123 160 157 162 172 183 190 196 205 203 206 211 215 227 204 195 203 208 212 217 227 236 240 245 254 261 265 268 273 279 282 282 281 281 286 295 301